| time (UTC) | temp C | wind direction | speed KPH | gust KPH | rain 1hr cm | rain 24hr cm | rain mn cm | humidity % | barometer mb |
| 20260901201016 | 37 | 84 | 6.4 | 16.1 | 0.00 | 0.00 | 0.00 | 26 | 1014.5 |
| 20260901200026 | 37 | 49 | 3.2 | 9.7 | 0.00 | 0.00 | 0.00 | 27 | 1014.5 |
| 20260901195021 | 36 | 177 | 4.8 | 11.3 | 0.00 | 0.00 | 0.00 | 28 | 1014.7 |
| 20260901194016 | 37 | 150 | 6.4 | 14.5 | 0.00 | 0.00 | 0.00 | 27 | 1014.7 |
| 20260901193026 | 35 | 131 | 4.8 | 9.7 | 0.00 | 0.00 | 0.00 | 29 | 1014.9 |
| 20260901192021 | 36 | 68 | 6.4 | 16.1 | 0.00 | 0.00 | 0.00 | 29 | 1015.1 |
| 20260901191017 | 37 | 125 | 3.2 | 11.3 | 0.00 | 0.00 | 0.00 | 27 | 1015.2 |
| 20260901190027 | 37 | 69 | 6.4 | 16.1 | 0.00 | 0.00 | 0.00 | 27 | 1015.4 |
| 20260901185022 | 37 | 135 | 3.2 | 9.7 | 0.00 | 0.00 | 0.00 | 28 | 1015.5 |
| 20260901184037 | 36 | 101 | 6.4 | 14.5 | 0.00 | 0.00 | 0.00 | 29 | 1015.8 |
| 20260901183047 | 36 | 145 | 1.6 | 6.4 | 0.00 | 0.00 | 0.00 | 30 | 1016.1 |
| 20260901182022 | 35 | 116 | 4.8 | 12.9 | 0.00 | 0.00 | 0.00 | 31 | 1016.3 |
| 20260901181017 | 35 | 94 | 8.0 | 16.1 | 0.00 | 0.00 | 0.00 | 31 | 1016.4 |
| 20260901180027 | 35 | 154 | 3.2 | 11.3 | 0.00 | 0.00 | 0.00 | 32 | 1016.5 |
| 20260901175022 | 36 | 85 | 4.8 | 12.9 | 0.00 | 0.00 | 0.00 | 30 | 1016.6 |
| 20260901174018 | 36 | 56 | 6.4 | 12.9 | 0.00 | 0.00 | 0.00 | 30 | 1016.7 |
| 20260901173027 | 36 | 72 | 3.2 | 11.3 | 0.00 | 0.00 | 0.00 | 30 | 1016.9 |
| 20260901172023 | 36 | 89 | 1.6 | 6.4 | 0.00 | 0.00 | 0.00 | 30 | 1017.0 |
| 20260901171018 | 35 | 64 | 4.8 | 9.7 | 0.00 | 0.00 | 0.00 | 33 | 1017.1 |
| 20260901170028 | 34 | 194 | 1.6 | 11.3 | 0.00 | 0.00 | 0.00 | 33 | 1017.2 |
| 20260901165023 | 34 | 132 | 4.8 | 11.3 | 0.00 | 0.00 | 0.00 | 34 | 1017.3 |
| 20260901164059 | 34 | 146 | 3.2 | 9.7 | 0.00 | 0.00 | 0.00 | 35 | 1017.4 |
| 20260901163028 | 34 | 244 | 1.6 | 4.8 | 0.00 | 0.00 | 0.00 | 35 | 1017.6 |
| 20260901162023 | 33 | 163 | 3.2 | 11.3 | 0.00 | 0.00 | 0.00 | 36 | 1017.6 |
| 20260901161018 | 33 | 146 | 3.2 | 9.7 | 0.00 | 0.00 | 0.00 | 37 | 1017.5 |
| 20260901160028 | 32 | 167 | 3.2 | 11.3 | 0.00 | 0.00 | 0.00 | 38 | 1017.6 |
| 20260901155023 | 32 | 161 | 3.2 | 12.9 | 0.00 | 0.00 | 0.00 | 38 | 1017.5 |
| 20260901154018 | 31 | 171 | 3.2 | 11.3 | 0.00 | 0.00 | 0.00 | 40 | 1017.5 |
| 20260901153028 | 31 | 227 | 1.6 | 4.8 | 0.00 | 0.00 | 0.00 | 42 | 1017.5 |
| 20260901152023 | 31 | 156 | 4.8 | 14.5 | 0.00 | 0.00 | 0.00 | 41 | 1017.4 |
| 20260901151019 | 31 | 161 | 1.6 | 6.4 | 0.00 | 0.00 | 0.00 | 45 | 1017.6 |
| 20260901150028 | 30 | 144 | 1.6 | 4.8 | 0.00 | 0.00 | 0.00 | 46 | 1017.5 |
| 20260901145024 | 29 | 159 | 1.6 | 6.4 | 0.00 | 0.00 | 0.00 | 49 | 1017.5 |
| 20260901144019 | 28 | 160 | 1.6 | 6.4 | 0.00 | 0.00 | 0.00 | 50 | 1017.6 |
| 20260901143029 | 28 | 167 | 1.6 | 6.4 | 0.00 | 0.00 | 0.00 | 51 | 1017.7 |
| 20260901142024 | 27 | 191 | 0.0 | 1.6 | 0.00 | 0.00 | 0.00 | 54 | 1017.7 |
| 20260901141019 | 27 | 163 | 1.6 | 6.4 | 0.00 | 0.00 | 0.00 | 56 | 1017.7 |
| 20260901140049 | 26 | 174 | 3.2 | 9.7 | 0.00 | 0.00 | 0.00 | 58 | 1017.7 |
| 20260901135024 | 25 | 151 | 3.2 | 9.7 | 0.00 | 0.00 | 0.00 | 60 | 1017.7 |
| 20260901134020 | 25 | 154 | 1.6 | 4.8 | 0.00 | 0.00 | 0.00 | 62 | 1017.7 |
| 20260901133030 | 24 | 152 | 1.6 | 6.4 | 0.00 | 0.00 | 0.00 | 63 | 1017.6 |
| 20260901132025 | 23 | 153 | 3.2 | 9.7 | 0.00 | 0.00 | 0.00 | 64 | 1017.6 |
| 20260901131020 | 23 | 160 | 0.0 | 1.6 | 0.00 | 0.00 | 0.00 | 63 | 1017.5 |
| 20260901130030 | 23 | 160 | 0.0 | 1.6 | 0.00 | 0.00 | 0.00 | 63 | 1017.5 |
| 20260901125025 | 22 | 160 | 0.0 | 1.6 | 0.00 | 0.00 | 0.00 | 64 | 1017.1 |
| 20260901124021 | 22 | 160 | 0.0 | 1.6 | 0.00 | 0.00 | 0.00 | 64 | 1017.0 |
| 20260901123015 | 22 | 160 | 0.0 | 1.6 | 0.00 | 0.00 | 0.00 | 64 | 1017.1 |
| 20260901122026 | 22 | 160 | 0.0 | 1.6 | 0.00 | 0.00 | 0.00 | 64 | 1016.9 |
| 20260901121020 | 22 | 160 | 1.6 | 3.2 | 0.00 | 0.00 | 0.00 | 64 | 1016.7 |
| 20260901120015 | 22 | 0.0 | 0.0 | 0.00 | 0.00 | 0.00 | 64 | 1016.7 | |
| 20260901115025 | 22 | 160 | 0.0 | 3.2 | 0.00 | 0.00 | 0.00 | 64 | 1016.5 |
| 20260901114021 | 22 | 160 | 0.0 | 3.2 | 0.00 | 0.00 | 0.00 | 64 | 1016.6 |
| 20260901113016 | 22 | 160 | 1.6 | 3.2 | 0.00 | 0.00 | 0.00 | 63 | 1016.5 |
| 20260901112025 | 22 | 145 | 0.0 | 3.2 | 0.00 | 0.00 | 0.00 | 62 | 1016.4 |
| 20260901111020 | 22 | 137 | 0.0 | 1.6 | 0.00 | 0.00 | 0.00 | 62 | 1016.4 |
| 20260901110035 | 22 | 140 | 1.6 | 4.8 | 0.00 | 0.00 | 0.00 | 61 | 1016.2 |
| 20260901105025 | 22 | 160 | 1.6 | 4.8 | 0.00 | 0.00 | 0.00 | 61 | 1016.2 |
| 20260901104020 | 22 | 164 | 1.6 | 3.2 | 0.00 | 0.00 | 0.00 | 62 | 1016.2 |
| 20260901103015 | 22 | 165 | 0.0 | 1.6 | 0.00 | 0.00 | 0.00 | 62 | 1016.2 |
| 20260901102025 | 22 | 0.0 | 0.0 | 0.00 | 0.00 | 0.00 | 62 | 1016.2 | |
| 20260901101021 | 23 | 164 | 0.0 | 3.2 | 0.00 | 0.00 | 0.00 | 60 | 1016.3 |
| 20260901100016 | 23 | 165 | 1.6 | 4.8 | 0.00 | 0.00 | 0.00 | 59 | 1016.2 |
| 20260901095026 | 23 | 166 | 1.6 | 3.2 | 0.00 | 0.00 | 0.00 | 58 | 1016.2 |
| 20260901093524 | 23 | 161 | 0.0 | 1.6 | 0.00 | 0.00 | 0.00 | 57 | 1016.2 |
| 20260901093027 | 23 | 165 | 1.6 | 4.8 | 0.00 | 0.00 | 0.00 | 57 | 1016.3 |
| 20260901092023 | 23 | 156 | 1.6 | 4.8 | 0.00 | 0.00 | 0.00 | 57 | 1016.4 |
| 20260901091018 | 23 | 161 | 3.2 | 6.4 | 0.00 | 0.00 | 0.00 | 56 | 1016.3 |
| 20260901090029 | 23 | 169 | 1.6 | 6.4 | 0.00 | 0.00 | 0.00 | 56 | 1016.3 |
| 20260901085024 | 24 | 164 | 1.6 | 3.2 | 0.00 | 0.00 | 0.00 | 55 | 1016.0 |
| 20260901084040 | 24 | 166 | 1.6 | 6.4 | 0.00 | 0.00 | 0.00 | 55 | 1016.2 |
| 20260901083036 | 24 | 162 | 3.2 | 6.4 | 0.00 | 0.00 | 0.00 | 54 | 1016.2 |
| 20260901082026 | 25 | 162 | 3.2 | 9.7 | 0.00 | 0.00 | 0.00 | 53 | 1016.2 |
| 20260901081022 | 25 | 154 | 3.2 | 6.4 | 0.00 | 0.00 | 0.00 | 53 | 1016.2 |
| 20260901080017 | 25 | 144 | 3.2 | 9.7 | 0.00 | 0.00 | 0.00 | 52 | 1016.1 |
| 20260901075026 | 25 | 161 | 4.8 | 14.5 | 0.00 | 0.00 | 0.00 | 51 | 1016.2 |
| 20260901074030 | 25 | 144 | 3.2 | 11.3 | 0.00 | 0.00 | 0.00 | 51 | 1016.2 |
| 20260901073032 | 25 | 162 | 3.2 | 12.9 | 0.00 | 0.00 | 0.00 | 51 | 1016.1 |
| 20260901072028 | 25 | 148 | 4.8 | 11.3 | 0.00 | 0.00 | 0.00 | 50 | 1016.1 |
| 20260901071025 | 25 | 153 | 3.2 | 11.3 | 0.00 | 0.00 | 0.00 | 49 | 1016.0 |
| 20260901070022 | 25 | 153 | 4.8 | 12.9 | 0.00 | 0.00 | 0.00 | 48 | 1015.9 |
| 20260901065044 | 25 | 125 | 3.2 | 6.4 | 0.00 | 0.00 | 0.00 | 47 | 1015.8 |
| 20260901064034 | 25 | 136 | 1.6 | 4.8 | 0.00 | 0.00 | 0.00 | 45 | 1015.7 |
| 20260901063035 | 25 | 142 | 1.6 | 3.2 | 0.00 | 0.00 | 0.00 | 45 | 1015.5 |
| 20260901062025 | 25 | 156 | 3.2 | 6.4 | 0.00 | 0.00 | 0.00 | 45 | 1015.5 |
| 20260901061110 | 25 | 142 | 3.2 | 9.7 | 0.00 | 0.00 | 0.00 | 44 | 1015.5 |
| 20260901060029 | 25 | 128 | 3.2 | 11.3 | 0.00 | 0.00 | 0.00 | 43 | 1015.3 |
| 20260901055033 | 25 | 126 | 3.2 | 6.4 | 0.00 | 0.00 | 0.00 | 43 | 1015.3 |
| 20260901054024 | 25 | 134 | 1.6 | 3.2 | 0.00 | 0.00 | 0.00 | 42 | 1015.1 |
| 20260901053058 | 25 | 130 | 1.6 | 6.4 | 0.00 | 0.00 | 0.00 | 42 | 1015.1 |
| 20260901052033 | 25 | 123 | 1.6 | 4.8 | 0.00 | 0.00 | 0.00 | 41 | 1015.0 |
| 20260901051043 | 25 | 138 | 1.6 | 6.4 | 0.00 | 0.00 | 0.00 | 41 | 1015.0 |
| 20260901050024 | 25 | 152 | 1.6 | 3.2 | 0.00 | 0.00 | 0.00 | 41 | 1014.8 |
| 20260901045027 | 26 | 152 | 0.0 | 3.2 | 0.00 | 0.00 | 0.00 | 40 | 1014.8 |
| 20260901044017 | 26 | 152 | 0.0 | 1.6 | 0.00 | 0.00 | 0.00 | 39 | 1014.9 |
| 20260901043031 | 26 | 152 | 0.0 | 3.2 | 0.00 | 0.00 | 0.00 | 38 | 1014.7 |
| 20260901042029 | 26 | 152 | 1.6 | 3.2 | 0.00 | 0.00 | 0.00 | 38 | 1014.8 |
| 20260901041108 | 26 | 152 | 0.0 | 3.2 | 0.00 | 0.00 | 0.00 | 37 | 1014.7 |
| 20260901040041 | 26 | 154 | 0.0 | 3.2 | 0.00 | 0.00 | 0.00 | 37 | 1014.9 |
| 20260901035050 | 27 | 148 | 0.0 | 3.2 | 0.00 | 0.00 | 0.00 | 36 | 1014.9 |
| 20260901034024 | 27 | 145 | 0.0 | 1.6 | 0.00 | 0.00 | 0.00 | 35 | 1014.9 |
| 20260901033020 | 27 | 145 | 0.0 | 3.2 | 0.00 | 0.00 | 0.00 | 35 | 1014.9 |
| 20260901032027 | 27 | 138 | 1.6 | 4.8 | 0.00 | 0.00 | 0.00 | 34 | 1014.8 |
| 20260901031023 | 27 | 132 | 1.6 | 3.2 | 0.00 | 0.00 | 0.00 | 33 | 1014.7 |
| 20260901030043 | 28 | 129 | 1.6 | 4.8 | 0.00 | 0.00 | 0.00 | 32 | 1014.6 |
| 20260901025019 | 28 | 148 | 3.2 | 4.8 | 0.00 | 0.00 | 0.00 | 32 | 1014.4 |
| 20260901024030 | 28 | 148 | 1.6 | 6.4 | 0.00 | 0.00 | 0.00 | 31 | 1014.5 |
| 20260901023025 | 28 | 133 | 1.6 | 4.8 | 0.00 | 0.00 | 0.00 | 30 | 1014.3 |
| 20260901022121 | 28 | 140 | 1.6 | 4.8 | 0.00 | 0.00 | 0.00 | 30 | 1014.2 |
| 20260901021016 | 29 | 136 | 1.6 | 6.4 | 0.00 | 0.00 | 0.00 | 30 | 1014.1 |
| 20260901015530 | 30 | 135 | 1.6 | 4.8 | 0.00 | 0.00 | 0.00 | 29 | 1013.9 |
| 20260901014546 | 30 | 142 | 1.6 | 4.8 | 0.00 | 0.00 | 0.00 | 29 | 1013.7 |
| 20260901013521 | 30 | 131 | 3.2 | 6.4 | 0.00 | 0.00 | 0.00 | 28 | 1013.8 |
| 20260901012537 | 30 | 126 | 3.2 | 6.4 | 0.00 | 0.00 | 0.00 | 28 | 1013.8 |
| 20260901011527 | 31 | 130 | 3.2 | 11.3 | 0.00 | 0.00 | 0.00 | 28 | 1013.7 |
| 20260901010543 | 31 | 134 | 3.2 | 6.4 | 0.00 | 0.00 | 0.00 | 27 | 1013.6 |
| 20260901005559 | 31 | 126 | 4.8 | 6.4 | 0.00 | 0.00 | 0.00 | 27 | 1013.5 |
| 20260901004530 | 31 | 149 | 3.2 | 11.3 | 0.00 | 0.00 | 0.00 | 27 | 1013.6 |
| 20260901003526 | 32 | 129 | 3.2 | 9.7 | 0.00 | 0.00 | 0.00 | 27 | 1013.6 |
| 20260901002521 | 32 | 136 | 3.2 | 9.7 | 0.00 | 0.00 | 0.00 | 26 | 1013.5 |
| 20260901001517 | 33 | 127 | 3.2 | 11.3 | 0.00 | 0.00 | 0.00 | 25 | 1013.4 |
| 20260901000528 | 33 | 118 | 6.4 | 14.5 | 0.00 | 0.00 | 0.00 | 26 | 1013.5 |
| 20260831235523 | 33 | 109 | 6.4 | 16.1 | 0.00 | 0.00 | 0.00 | 26 | 1013.4 |
| 20260831234519 | 33 | 128 | 6.4 | 11.3 | 0.00 | 0.00 | 0.00 | 25 | 1013.6 |
| 20260831233541 | 34 | 133 | 4.8 | 12.9 | 0.00 | 0.00 | 0.00 | 25 | 1013.5 |
| 20260831232530 | 34 | 146 | 4.8 | 11.3 | 0.00 | 0.00 | 0.00 | 25 | 1013.6 |
| 20260831231524 | 34 | 145 | 3.2 | 11.3 | 0.00 | 0.00 | 0.00 | 25 | 1013.5 |
| 20260831230519 | 34 | 110 | 8.0 | 14.5 | 0.00 | 0.00 | 0.00 | 24 | 1013.6 |
| 20260831225549 | 35 | 133 | 6.4 | 14.5 | 0.00 | 0.00 | 0.00 | 24 | 1013.6 |
| 20260831224524 | 35 | 109 | 9.7 | 17.7 | 0.00 | 0.00 | 0.00 | 25 | 1013.6 |
| 20260831223519 | 34 | 136 | 4.8 | 14.5 | 0.00 | 0.00 | 0.00 | 26 | 1013.7 |
| 20260831222529 | 35 | 128 | 4.8 | 16.1 | 0.00 | 0.00 | 0.00 | 25 | 1013.8 |
| 20260831221524 | 36 | 139 | 6.4 | 16.1 | 0.00 | 0.00 | 0.00 | 24 | 1013.9 |
| 20260831220519 | 35 | 141 | 4.8 | 14.5 | 0.00 | 0.00 | 0.00 | 25 | 1013.8 |
| 20260831215529 | 36 | 157 | 4.8 | 11.3 | 0.00 | 0.00 | 0.00 | 23 | 1013.9 |
| 20260831214524 | 37 | 148 | 4.8 | 11.3 | 0.00 | 0.00 | 0.00 | 22 | 1014.1 |
| 20260831213519 | 37 | 174 | 4.8 | 11.3 | 0.00 | 0.00 | 0.00 | 22 | 1014.1 |
| 20260831212529 | 37 | 130 | 6.4 | 14.5 | 0.00 | 0.00 | 0.00 | 21 | 1014.2 |
| 20260831211524 | 37 | 109 | 6.4 | 14.5 | 0.00 | 0.00 | 0.00 | 22 | 1014.3 |
| 20260831210519 | 36 | 137 | 6.4 | 17.7 | 0.00 | 0.00 | 0.00 | 22 | 1014.4 |
| 20260831205530 | 36 | 109 | 8.0 | 14.5 | 0.00 | 0.00 | 0.00 | 22 | 1014.6 |
| 20260831204524 | 37 | 94 | 8.0 | 14.5 | 0.00 | 0.00 | 0.00 | 23 | 1014.7 |
| 20260831203519 | 36 | 130 | 9.7 | 16.1 | 0.00 | 0.00 | 0.00 | 23 | 1015.0 |
| 20260831202530 | 37 | 124 | 11.3 | 20.9 | 0.00 | 0.00 | 0.00 | 23 | 1015.0 |
| 20260831201545 | 37 | 127 | 8.0 | 16.1 | 0.00 | 0.00 | 0.00 | 22 | 1015.2 |